When you browse on this site, cookies collect data to enhance your experience and personalize the content and advertising you see.
Visit our Privacy Policy to learn more. By continuing to use the site, you agree to this use of cookies and data.
  • In Romania
  • List of Countries
  • For 7 days
  • Water Temperature
  • Satellite Maps
  • Weather Map
  • Weather Widgets
  • user-avatar
    Login

    Hourly Weather Iraklion

    Today, 24 May, Friday

    Time Temperature Precipitation Wind Pressure Humidity
    00:00 +21°C° 0 mm 3 mps 751 mmHg 65%
    01:00 +20°C° 0 mm 3 mps 751 mmHg 63%
    02:00 +20°C° 0 mm 4 mps 751 mmHg 60%
    03:00 +19°C° 0 mm 3 mps 751 mmHg 59%
    04:00 +19°C° 0 mm 3 mps 751 mmHg 59%
    05:00 +19°C° 0 mm 3 mps 751 mmHg 58%
    06:00 +20°C° 0 mm 4 mps 751 mmHg 53%
    07:00 +22°C° 0 mm 4 mps 751 mmHg 47%
    08:00 +23°C° 0 mm 5 mps 751 mmHg 43%
    09:00 +24°C° 0 mm 6 mps 752 mmHg 43%
    10:00 +26°C° 0 mm 6 mps 752 mmHg 42%
    11:00 +26°C° 0 mm 7 mps 752 mmHg 42%
    12:00 +26°C° 0 mm 7 mps 752 mmHg 44%
    13:00 +26°C° 0 mm 7 mps 752 mmHg 45%
    14:00 +27°C° 0 mm 7 mps 752 mmHg 47%
    15:00 +26°C° 0 mm 7 mps 752 mmHg 50%
    16:00 +24°C° 0 mm 7 mps 752 mmHg 53%
    17:00 +23°C° 0 mm 7 mps 752 mmHg 55%
    18:00 +22°C° 0 mm 6 mps 752 mmHg 61%
    19:00 +21°C° 0 mm 5 mps 752 mmHg 67%
    20:00 +19°C° 0 mm 4 mps 753 mmHg 73%
    21:00 +19°C° 0 mm 3 mps 753 mmHg 74%
    22:00 +19°C° 0 mm 3 mps 753 mmHg 76%
    23:00 +18°C° 0 mm 2 mps 754 mmHg 78%

    Tomorrow, 25 May, Saturday

    Time Temperature Precipitation Wind Pressure Humidity
    00:00 +18°C° 0 mm 2 mps 753 mmHg 78%
    01:00 +18°C° 0 mm 2 mps 753 mmHg 79%
    02:00 +17°C° 0 mm 2 mps 753 mmHg 80%
    03:00 +17°C° 0 mm 2 mps 753 mmHg 79%
    04:00 +17°C° 0 mm 2 mps 753 mmHg 79%
    05:00 +17°C° 0 mm 2 mps 753 mmHg 79%
    06:00 +19°C° 0 mm 2 mps 753 mmHg 70%
    07:00 +22°C° 0 mm 1 mps 754 mmHg 61%
    08:00 +24°C° 0 mm 1 mps 754 mmHg 51%
    09:00 +25°C° 0 mm 1 mps 754 mmHg 48%
    10:00 +26°C° 0 mm 1 mps 754 mmHg 44%
    11:00 +27°C° 0 mm 2 mps 755 mmHg 41%
    12:00 +27°C° 0 mm 2 mps 755 mmHg 43%
    13:00 +27°C° 0 mm 3 mps 755 mmHg 46%
    14:00 +28°C° 0 mm 3 mps 755 mmHg 48%
    15:00 +27°C° 0 mm 3 mps 755 mmHg 51%
    16:00 +26°C° 0 mm 3 mps 754 mmHg 55%
    17:00 +25°C° 0 mm 3 mps 754 mmHg 58%
    18:00 +24°C° 0 mm 3 mps 754 mmHg 64%
    19:00 +23°C° 0 mm 2 mps 754 mmHg 69%
    20:00 +21°C° 0 mm 2 mps 754 mmHg 75%
    21:00 +21°C° 0 mm 1 mps 755 mmHg 76%
    22:00 +21°C° 0 mm 1 mps 755 mmHg 78%
    23:00 +20°C° 0 mm 1 mps 755 mmHg 80%

    Day after tomorrow, 26 May, Sunday

    Time Temperature Precipitation Wind Pressure Humidity
    00:00 +18°C° 0 mm 0 mps 755 mmHg 81%
    01:00 +18°C° 0 mm 0 mps 754 mmHg 81%
    02:00 +18°C° 0 mm 0 mps 754 mmHg 82%
    03:00 +18°C° 0 mm 0 mps 754 mmHg 83%
    04:00 +17°C° 0 mm 0 mps 754 mmHg 83%
    05:00 +17°C° 0 mm 0 mps 754 mmHg 84%
    06:00 +21°C° 0 mm 1 mps 754 mmHg 76%
    07:00 +22°C° 0 mm 1 mps 754 mmHg 68%
    08:00 +24°C° 0 mm 1 mps 754 mmHg 61%
    09:00 +25°C° 0 mm 1 mps 754 mmHg 57%
    10:00 +26°C° 0 mm 2 mps 755 mmHg 54%
    11:00 +27°C° 0 mm 2 mps 755 mmHg 50%
    12:00 +27°C° 0 mm 2 mps 755 mmHg 52%
    13:00 +27°C° 0 mm 2 mps 755 mmHg 54%
    14:00 +27°C° 0 mm 2 mps 755 mmHg 56%
    15:00 +27°C° 0 mm 2 mps 754 mmHg 56%
    16:00 +27°C° 0 mm 3 mps 754 mmHg 56%
    17:00 +27°C° 0 mm 3 mps 754 mmHg 55%
    18:00 +25°C° 0 mm 3 mps 754 mmHg 61%
    19:00 +24°C° 0 mm 2 mps 754 mmHg 66%
    20:00 +23°C° 0 mm 2 mps 754 mmHg 72%
    21:00 +21°C° 0 mm 2 mps 754 mmHg 73%
    22:00 +21°C° 0 mm 2 mps 754 mmHg 75%
    23:00 +21°C° 0 mm 2 mps 754 mmHg 76%

    27 May, Monday

    Time Temperature Precipitation Wind Pressure Humidity
    00:00 +22°C° 0 mm 1 mps 753 mmHg 77%
    01:00 +21°C° 0 mm 1 mps 753 mmHg 78%
    02:00 +21°C° 0 mm 1 mps 753 mmHg 78%
    03:00 +21°C° 0 mm 1 mps 753 mmHg 77%
    04:00 +21°C° 0 mm 1 mps 753 mmHg 76%
    05:00 +20°C° 0 mm 2 mps 753 mmHg 75%
    06:00 +23°C° 0 mm 2 mps 753 mmHg 66%
    07:00 +25°C° 0 mm 2 mps 753 mmHg 57%
    08:00 +26°C° 0 mm 2 mps 753 mmHg 48%
    09:00 +28°C° 0 mm 2 mps 753 mmHg 44%
    10:00 +29°C° 0 mm 3 mps 754 mmHg 39%
    11:00 +30°C° 0 mm 3 mps 754 mmHg 34%
    12:00 +31°C° 0 mm 3 mps 754 mmHg 34%
    13:00 +32°C° 0 mm 4 mps 754 mmHg 33%
    14:00 +33°C° 0 mm 4 mps 753 mmHg 33%
    15:00 +31°C° 0 mm 3 mps 753 mmHg 34%
    16:00 +31°C° 0 mm 3 mps 753 mmHg 34%
    17:00 +30°C° 0 mm 3 mps 753 mmHg 35%
    18:00 +29°C° 0.1 mm 3 mps 753 mmHg 39%
    19:00 +27°C° 0.1 mm 3 mps 753 mmHg 43%
    20:00 +25°C° 0.1 mm 2 mps 753 mmHg 47%
    21:00 +26°C° 0.1 mm 3 mps 753 mmHg 42%
    22:00 +26°C° 0.1 mm 3 mps 753 mmHg 36%
    23:00 +26°C° 0.1 mm 3 mps 753 mmHg 31%

    28 May, Tuesday

    Time Temperature Precipitation Wind Pressure Humidity
    00:00 +26°C° 0.1 mm 3 mps 753 mmHg 32%
    01:00 +25°C° 0.1 mm 3 mps 752 mmHg 32%
    02:00 +25°C° 0.1 mm 3 mps 752 mmHg 33%
    03:00 +25°C° 0 mm 3 mps 752 mmHg 35%
    04:00 +24°C° 0 mm 3 mps 752 mmHg 36%
    05:00 +24°C° 0 mm 3 mps 752 mmHg 37%
    06:00 +26°C° 0 mm 2 mps 753 mmHg 35%
    07:00 +27°C° 0 mm 2 mps 753 mmHg 34%
    08:00 +28°C° 0 mm 2 mps 753 mmHg 32%
    09:00 +30°C° 0 mm 2 mps 753 mmHg 31%
    10:00 +31°C° 0 mm 2 mps 754 mmHg 30%
    11:00 +32°C° 0 mm 2 mps 754 mmHg 29%
    12:00 +32°C° 0 mm 2 mps 754 mmHg 31%
    13:00 +32°C° 0 mm 2 mps 754 mmHg 33%
    14:00 +32°C° 0 mm 2 mps 754 mmHg 34%
    15:00 +31°C° 0.1 mm 2 mps 754 mmHg 39%
    16:00 +30°C° 0.1 mm 2 mps 753 mmHg 43%
    17:00 +29°C° 0.1 mm 2 mps 753 mmHg 48%
    18:00 +28°C° 0.1 mm 1 mps 754 mmHg 54%
    19:00 +27°C° 0.1 mm 1 mps 754 mmHg 59%
    20:00 +25°C° 0.1 mm 1 mps 754 mmHg 65%
    21:00 +25°C° 0 mm 1 mps 754 mmHg 66%
    22:00 +25°C° 0 mm 1 mps 754 mmHg 67%
    23:00 +25°C° 0 mm 1 mps 754 mmHg 68%

    29 May, Wednesday

    Time Temperature Precipitation Wind Pressure Humidity
    00:00 +24°C° 0 mm 1 mps 754 mmHg 69%
    01:00 +24°C° 0 mm 2 mps 754 mmHg 69%
    02:00 +24°C° 0 mm 2 mps 754 mmHg 70%
    03:00 +23°C° 0 mm 2 mps 754 mmHg 70%
    04:00 +23°C° 0 mm 2 mps 754 mmHg 70%
    05:00 +22°C° 0 mm 3 mps 754 mmHg 70%
    06:00 +24°C° 0 mm 2 mps 754 mmHg 62%
    07:00 +26°C° 0 mm 2 mps 754 mmHg 55%
    08:00 +28°C° 0 mm 2 mps 755 mmHg 47%
    09:00 +29°C° 0 mm 2 mps 755 mmHg 44%
    10:00 +31°C° 0 mm 2 mps 755 mmHg 40%
    11:00 +33°C° 0 mm 3 mps 755 mmHg 37%
    12:00 +33°C° 0 mm 3 mps 755 mmHg 38%
    13:00 +33°C° 0 mm 3 mps 755 mmHg 38%
    14:00 +34°C° 0 mm 3 mps 755 mmHg 39%
    15:00 +32°C° 0 mm 2 mps 755 mmHg 41%
    16:00 +31°C° 0 mm 2 mps 754 mmHg 43%
    17:00 +30°C° 0 mm 2 mps 754 mmHg 45%
    18:00 +29°C° 0 mm 2 mps 755 mmHg 51%
    19:00 +27°C° 0 mm 2 mps 755 mmHg 57%
    20:00 +25°C° 0 mm 1 mps 755 mmHg 62%
    21:00 +25°C° 0 mm 1 mps 755 mmHg 64%
    22:00 +25°C° 0 mm 1 mps 755 mmHg 66%
    23:00 +24°C° 0 mm 2 mps 755 mmHg 68%
    Show more